• Join FlightAware (Why Join?)
  • Login
  • US Flag 
01:08AM EST


 

Airport Tracker/Info


-or-


 

Live Flight TrackerFlight Track Log ✈ SWA3383 ✈ 12-Jul-2013 ✈ KDEN - KBOI

Flight Track Log - Related Links

Times and Time Zones

All times are in EDT time to prevent confusion due to time zone crossing. See the SWA3383 flight status page for this flight to view local times or setup timezone preferences in your user account.

Time Position Orientation Groundspeed Altitude Reporting Facility
EDT Latitude Longitude Course Direction KTS MPH feet Rate Location/Type
12:29AM 39.9000 -104.7000 282° West 176 203 6,800  Level Denver TRACON
12:30AM 39.9111 -104.7692 282° West 215 247 8,100 1,800 Climbing Denver Center
12:31AM 39.9300 -104.8497 287° West 232 267 10,100 1,560 Climbing Denver Center
12:32AM 39.9450 -104.9617 280° West 311 358 11,300 2,160 Climbing Denver Center
12:33AM 39.9503 -105.0886 273° West 347 399 14,600 3,180 Climbing Denver Center
12:34AM 39.9567 -105.2300 273° West 364 419 17,800 2,820 Climbing Denver Center
12:35AM 39.9617 -105.3672 273° West 378 435 20,400 2,220 Climbing Denver Center
12:36AM 39.9667 -105.5064 273° West 385 443 22,800 2,040 Climbing Denver Center
12:37AM 39.9736 -105.6939 273° West 411 473 25,000 1,560 Climbing Denver Center
12:38AM 39.9697 -105.8431 268° West 414 476 26,000 480 Climbing Denver Center
12:39AM 39.9783 -105.9983 274° West 427 491 26,100 960 Climbing Denver Center
12:40AM 39.9886 -106.1850 274° West 432 497 28,200 1,860 Climbing Denver Center
12:41AM 39.9983 -106.3464 275° West 446 513 29,900 1,800 Climbing Denver Center
12:42AM 40.0303 -106.5111 284° West 452 520 31,900 1,920 Climbing Denver Center
12:43AM 40.0889 -106.6525 298° West 465 535 33,900 1,860 Climbing Denver Center
12:44AM 40.1542 -106.8161 298° West 456 525 35,700 1,560 Climbing Denver Center
12:45AM 40.2094 -106.9561 297° West 454 522 37,100 1,500 Climbing Denver Center
12:46AM 40.2742 -107.1192 298° West 454 522 38,800 1,380 Climbing Denver Center
12:47AM 40.3292 -107.2572 298° West 451 519 40,000 540 Climbing Denver Center
12:48AM 40.3831 -107.3956 297° West 449 517 40,000  Level Denver Center
12:49AM 40.4456 -107.5564 297° West 447 514 40,000  Level Denver Center
12:50AM 40.4992 -107.6947 297° West 446 513 40,000  Level Denver Center
12:52AM 40.5531 -107.8314 297° West 444 511 40,000  Level Denver Center
12:53AM 40.6131 -107.9914 296° West 441 507 40,000  Level Denver Center
12:54AM 40.6750 -108.1497 297° West 437 503 40,000  Level Denver Center
12:55AM 40.7358 -108.3108 297° West 437 503 40,000  Level Denver Center
12:56AM 40.7875 -108.4472 297° West 433 498 40,000  Level Denver Center
12:57AM 40.8386 -108.5850 296° West 435 501 40,000  Level Denver Center
12:58AM 40.9003 -108.7475 297° West 439 505 40,000  Level Salt Lake Center
12:59AM 40.9514 -108.8867 296° West 440 506 40,000  Level Salt Lake Center
01:00AM 41.0025 -109.0244 296° West 436 502 40,000  Level Salt Lake Center
01:01AM 41.0617 -109.1864 296° West 434 499 40,000  Level Salt Lake Center
01:02AM 41.1128 -109.3239 296° West 432 497 40,000  Level Salt Lake Center
01:03AM 41.1628 -109.4625 296° West 432 497 40,000  Level Salt Lake Center
01:04AM 41.2211 -109.6239 296° West 432 497 40,000  Level Salt Lake Center
01:05AM 41.2714 -109.7614 296° West 431 496 40,000  Level Salt Lake Center
01:06AM 41.3219 -109.9006 296° West 434 499 40,000  Level Salt Lake Center
01:07AM 41.3797 -110.0619 296° West 432 497 40,000  Level Salt Lake Center
01:08AM 41.4281 -110.1983 295° West 426 490 40,000  Level Salt Lake Center
01:09AM 41.4844 -110.3572 295° West 424 488 40,000  Level Salt Lake Center
01:10AM 41.5328 -110.4942 295° West 426 490 40,000  Level Salt Lake Center
01:11AM 41.5811 -110.6308 295° West 425 489 40,000  Level Salt Lake Center
01:12AM 41.6367 -110.7908 295° West 424 488 40,000  Level Salt Lake Center
01:13AM 41.6864 -110.9272 296° West 426 490 40,000  Level Salt Lake Center
01:14AM 41.7375 -111.0806 294° West 419 482 40,000  Level Salt Lake Center
01:15AM 41.7856 -111.2194 295° West 416 479 40,000  Level Salt Lake Center
01:16AM 41.8328 -111.3589 294° West 414 476 40,000  Level Salt Lake Center
01:17AM 41.8808 -111.4986 295° West 415 478 40,000  Level Salt Lake Center
01:18AM 41.9292 -111.6386 295° West 417 480 40,000  Level Salt Lake Center
01:19AM 41.9764 -111.7822 294° West 422 486 40,000  Level Salt Lake Center
01:20AM 42.0250 -111.9242 295° West 420 483 40,000  Level Salt Lake Center
01:21AM 42.0719 -112.0661 294° West 417 480 40,000  Level Salt Lake Center
01:22AM 42.1183 -112.2083 294° West 417 480 40,000  Level Salt Lake Center
01:23AM 42.1753 -112.3789 294° West 418 481 40,000  Level Salt Lake Center
01:24AM 42.2261 -112.5217 296° West 423 487 40,000  Level Salt Lake Center
01:25AM 42.2803 -112.6606 298° West 422 486 40,000  Level Salt Lake Center
01:26AM 42.3350 -112.8031 297° West 427 491 40,000  Level Salt Lake Center
01:27AM 42.3889 -112.9469 297° West 429 494 40,000  Level Salt Lake Center
01:28AM 42.4439 -113.0897 298° West 430 495 40,000  Level Salt Lake Center
01:29AM 42.4983 -113.2347 297° West 434 499 40,000  Level Salt Lake Center
01:30AM 42.5517 -113.3772 297° West 428 493 40,000  Level Salt Lake Center
01:31AM 42.6056 -113.5208 297° West 429 494 40,000  Level Salt Lake Center
01:32AM 42.6586 -113.6647 297° West 428 493 40,000  Level Salt Lake Center
01:33AM 42.7139 -113.8114 297° West 430 495 40,000  Level Salt Lake Center
01:34AM 42.7633 -113.9592 295° West 429 494 40,000  Level Salt Lake Center
01:35AM 42.8267 -114.1319 297° West 424 488 40,000 -540 Level Salt Lake Center
01:36AM 42.8797 -114.2753 297° West 425 489 39,000 -1,860 Descending Salt Lake Center
01:37AM 42.9311 -114.4103 298° West 425 489 36,300 -3,000 Descending Salt Lake Center
01:38AM 42.9814 -114.5531 296° West 435 501 32,900 -3,720 Descending Salt Lake Center
01:40AM 43.0419 -114.7222 296° West 447 514 28,800 -3,300 Descending Salt Lake Center
01:41AM 43.0944 -114.8667 297° West 443 510 26,300 -2,520 Descending Salt Lake Center
01:42AM 43.1428 -115.0044 296° West 422 486 23,700 -2,760 Descending Salt Lake Center
01:43AM 43.1972 -115.1597 296° West 405 466 20,800 -3,000 Descending Salt Lake Center
01:44AM 43.2436 -115.2928 296° West 389 448 17,700 -3,180 Descending Salt Lake Center
01:45AM 43.2928 -115.4325 296° West 391 450 14,400 -2,340 Descending Salt Lake Center
01:46AM 43.3356 -115.5567 295° West 377 434 13,000 -1,140 Descending Salt Lake Center
01:47AM 43.3742 -115.6689 295° West 309 356 12,100 -1,380 Descending Salt Lake Center
01:48AM 43.4106 -115.7753 295° West 297 342 10,200 -1,920 Descending Salt Lake Center
01:49AM 43.4433 -115.8700 296° West 287 330 8,200 -1,980 Descending Salt Lake Center
01:50AM 43.4772 -115.9683 295° West 273 314 6,300 -1,080 Descending Salt Lake Center
01:51AM 43.5061 -116.0511 296° West 229 264 6,100 -780 Descending Salt Lake Center
01:52AM 43.5228 -116.1022 294° West 158 182 4,800 -1,200 Descending Salt Lake Center
01:53AM 43.5392 -116.1508 295° West 138 159 3,700 -600 Descending Salt Lake Center
01:54AM 43.5533 -116.1942 294° West 136 157 3,600 -120 Descending Salt Lake Center
01:56AM 43.5500 -116.2167 270° West  Level FlightAware Approximate
02:03AM 43.5644 -116.2229 270° West  Level Estimated
02:04AM 43.5644 -116.2229 270° West  Level Estimated